Location: Abundant Grace Fellowship
(35.0349°N, 90.0924°W)
Time: 01:35:40
(UTC+00:00)

Daily predictions for brighter satellites

Satellite Brightness Start Highest point End
(mag) Time Altitude Azimuth Time Altitude Azimuth Time Altitude Azimuth
OPS 6432 4.2 00:00:49 10° NNW 00:04:03 83° ENE 00:07:28 10° SSE
Meteor 2-15 4.4 00:01:14 10° N 00:07:22 77° E 00:13:26 10° S
Cosmos 1302 Rocket 4.1 00:03:08 10° SSW 00:08:22 85° WNW 00:13:39 10° NNE
USA 238 DEB 4.0 00:00:41 10° NNW 00:08:23 82° ENE 00:16:37 10° SSE
USA 238 4.0 00:00:47 10° NNW 00:08:29 81° ENE 00:16:43 10° SSE
Cosmos 1741 Rocket 3.9 00:04:38 10° NNW 00:09:51 83° ENE 00:15:02 10° SSE
SL-24 R/B - RUBIN 2 3.8 00:07:08 10° NNW 00:11:19 44° ENE 00:15:38 10° SE
Okean 3 3.3 00:08:41 10° S 00:12:44 83° E 00:16:47 10° N
Okean 2 3.9 00:09:30 10° SSW 00:13:17 56° W 00:17:04 10° N
Cosmos 1850 Rocket 4.1 00:10:17 10° NNW 00:15:36 82° WSW 00:20:55 10° SSE
CZ-4 R/B 4.2 00:12:38 10° SSE 00:16:34 80° ENE 00:20:32 10° N
SAR-Lupe-4 3.6 00:13:16 10° S 00:16:49 80° WSW 00:20:25 10° NNW
SPOT 1/Viking Rocket 3.5 00:15:19 10° SSE 00:20:28 89° WSW 00:25:38 10° NNW
BlueWalker 3 3.6 00:18:40 10° SSE 00:20:54 16° SE 00:21:14 16° ESE
Cosmos 1697 Rocket 3.9 00:22:46 10° N 00:26:56 20° ENE 00:26:57 20° ENE
RESURS DK-1 4.4 00:23:56 10° WSW 00:27:16 25° WNW 00:30:38 10° N
Cosmos 1833 Rocket 2.6 00:22:45 10° SSW 00:28:20 73° ESE 00:33:55 10° NNE
Cosmos 1869 Rocket 3.4 00:24:49 10° N 00:29:11 81° E 00:33:30 10° S
NOAA 6 4.2 00:26:15 10° SE 00:31:04 45° ENE 00:35:55 10° N
PSLV R/B 3.5 00:28:50 10° SSE 00:32:50 50° ENE 00:36:52 10° N
Resurs 1-3 3.4 00:29:11 10° SSE 00:33:28 81° ENE 00:37:46 10° N
Cosmos 1992 Rocket 3.9 00:29:43 10° SSW 00:34:53 90° E 00:40:05 10° NNE
Cosmos 292 Rocket 4.0 00:35:26 10° NNW 00:40:05 68° WSW 00:44:44 10° S
SL-19 R/B 4.4 00:41:10 10° SSE 00:47:17 72° ENE 00:53:34 10° N
Cosmos 1862 Rocket 3.4 00:44:15 10° S 00:48:38 68° E 00:51:22 22° NNE
SJ-7 4.2 00:45:50 10° S 00:49:37 80° WSW 00:53:24 10° NNW
Cosmos 1605 Rocket 4.5 00:45:57 10° NNE 00:51:47 36° ENE 00:57:32 10° SE
Spot 4 Rocket 4.1 00:47:39 10° S 00:52:46 80° WSW 00:57:54 10° NNW
CZ-2D R/B 4.2 00:54:42 10° S 00:58:25 48° W 01:02:06 10° NNW
Meteor 2-8 Rocket 4.4 00:52:40 10° N 00:58:51 85° W 01:05:00 10° S
YAOGAN 1 3.4 00:55:11 10° S 00:59:17 49° W 01:03:25 10° NNW
USA 305 2.7 00:58:31 10° SW 01:02:07 68° NW 01:02:21 65° NNW
Cosmos 1707 Rocket 3.5 00:59:57 10° S 01:04:14 81° W 01:06:15 31° N
COSMOS 2455 4.2 01:01:36 10° N 01:04:30 22° NNE 01:04:30 22° NNE
Helios 1A Rocket 3.5 01:14:22 42° WNW 01:14:22 42° WNW 01:17:25 10° SW
USA 215 3.7 01:12:33 26° NNE 01:16:12 57° NW 01:22:33 10° WSW
Okean 1-7 3.3 01:14:39 10° SSW 01:18:42 59° W 01:19:19 52° NW
NOSS 3-1 (C) 4.4 01:11:56 10° NNW 01:18:59 42° NE 01:19:07 42° NE
Cosmos 1934 Rocket 4.3 01:17:34 10° NNW 01:23:41 67° W 01:29:52 10° S
Resurs 01 Rocket 2.0 01:22:38 10° S 01:26:55 60° W 01:31:15 10° NNW
Cosmos 2228 Rocket 3.9 01:27:50 10° SSW 01:32:12 51° W 01:32:42 48° WNW
Cosmos 1733 Rocket 4.2 01:33:58 10° NNW 01:38:04 42° W 01:42:07 10° SSW
USA 267 4.4 01:48:16 29° N 01:48:16 29° N 01:52:02 10° NNW
DELTA 2 R/B (1) 4.3 01:41:20 10° W 01:45:44 47° NW 01:45:44 47° NW
Cosmos 2082 Rocket 4.0 02:02:46 10° SSW 02:04:36 22° SSW 02:04:36 22° SSW
Cosmos 1697 Rocket 4.2 02:05:40 10° NNW 02:08:46 31° NW 02:08:46 31° NW
CZ-3 Stage 3 4.2 02:25:46 10° W 02:29:28 23° WSW 02:29:28 23° WSW
Cosmos 909 Rocket 4.3 10:19:31 75° SE 10:19:31 75° SE 10:26:47 10° SSE
SEDSat Delta rocket 4.4 10:21:34 55° SE 10:21:34 55° SE 10:26:49 10° E
Atlas Centaur 2 3.3 10:25:23 35° SE 10:25:23 35° SE 10:29:35 10° E
CZ-3C R/B 3.9 10:28:07 22° S 10:30:19 25° SSE 10:46:56 10° ESE
CENTAUR R/B 4.3 10:39:43 10° SSE 10:43:44 24° ESE 10:48:22 10° NE
Meteor 1-21 4.1 10:51:08 83° WSW 10:51:08 83° WSW 10:56:46 10° S
BREEZE-M DEB (TANK) 4.3 10:51:47 57° WSW 10:53:16 86° NW 11:11:57 10° NE
Meteor 2-10 Rocket 3.7 10:53:13 10° S 10:58:13 68° E 11:03:26 10° NNE
Cosmos 2278 Rocket 2.0 11:02:28 67° W 11:02:53 70° WNW 11:08:32 10° NNE
Cosmos 1992 Rocket 3.8 11:04:22 72° WNW 11:04:47 78° WSW 11:09:58 10° S
Cosmos 2082 Rocket 4.0 11:00:42 10° N 11:05:29 27° ENE 11:10:17 10° ESE
Cosmos 1833 Rocket 2.8 11:09:01 51° WSW 11:09:01 51° WSW 11:14:04 10° S
Cosmos 1943 Rocket 2.4 11:12:01 47° NW 11:12:01 47° NW 11:16:34 10° N
Cosmos 1140 Rocket 3.3 11:06:31 10° SSW 11:11:36 88° W 11:16:45 10° NNE
Cosmos 1269 Rocket 3.9 11:08:09 10° SSW 11:13:26 82° WNW 11:18:44 10° NNE
Cosmos 2154 Rocket 4.0 11:07:48 10° S 11:14:06 82° E 11:20:25 10° N
Cosmos 1743 Rocket 3.7 11:13:21 10° S 11:17:45 72° E 11:22:09 10° N
Cosmos 1023 Rocket 4.3 11:14:10 12° SSW 11:18:49 69° WNW 11:23:55 10° NNE
Lacrosse 4 Rocket 1.1 11:19:15 49° SSW 11:20:15 88° ESE 11:24:11 10° NNE
Tiangong -1.4 11:20:51 49° SE 11:20:51 49° SE 11:23:50 10° ENE
Cosmos 1484 Rocket 4.3 11:24:24 10° NNE 11:27:31 33° E 11:30:39 10° SSE
OAO 1 Rocket 4.4 11:26:03 43° W 11:27:48 79° S 11:33:07 10° ESE
SJ 16-02 3.7 11:30:56 10° SSE 11:34:21 24° E 11:37:47 10° NE
Delta 2 Rocket 3.5 11:34:24 35° SSW 11:35:23 47° SSE 11:38:34 10° E
CZ-4 R/B 3.9 11:33:03 10° N 11:37:48 57° WNW 11:42:35 10° SSW
NOSS 2-2 (C) 3.8 11:33:58 10° SSW 11:37:51 51° ESE 11:40:58 10° NE
SL-12 R/B(2) 4.2 11:31:08 10° SW 11:38:38 57° NW 11:47:40 10° NNE
Helios 1A Rocket 4.2 11:37:17 10° SE 11:40:18 32° ENE 11:43:19 10° N
ARIANE 6 FM1 Upper Stage 4.1 11:41:18 21° SW 11:41:18 21° SW 11:43:43 10° SSW
Cosmos 1805 Rocket 4.1 11:36:46 10° SW 11:40:49 35° W 11:44:53 10° NNW
ATLAS CENTAUR R/B 1.2 11:43:51 26° N 11:45:13 50° ENE 11:48:04 10° SE
Cosmos 1758 3.4 11:44:23 10° SSW 11:47:55 43° W 11:51:28 10° N
Okean 2 4.1 11:48:25 28° WSW 11:48:25 28° WSW 11:51:17 10° SSW
Cosmos 1500 Rocket 4.3 11:44:34 10° SW 11:48:21 29° WNW 11:52:11 10° NNW
RUBIN 8/PSLV 4.4 11:46:49 10° N 11:50:58 63° WNW 11:55:07 10° SSW
Okean 3 3.6 11:49:50 19° NNW 11:52:22 43° W 11:56:08 10° SSW
SKYMED 2 4.1 11:51:06 10° SSW 11:55:06 37° W 11:58:15 15° NW
